Regional Weather Roundup
Issued by NWS

Home | Current Version | Previous Version | Text Only | Print | Product List | Glossary On
Versions: 1 2 3 4 5 6 7 8 9 10 11 12 13 14 15 16 17 18 19 20 21 22 23 24 25 26 27 28 29 30 31 32 33 34 35 36 37 38 39 40 41 42 43 44 45 46 47 48 49 50
000
ASPQ40 PGUM 311812
RWRPQ
WEATHER ROUNDUP FOR THE MARIANAS AND MICRONESIA
NATIONAL WEATHER SERVICE TIYAN GU
400 AM CHST FRI AUG 01 2014

GUZ001>004-311900-
MARIANA ISLANDS-

CITY           SKY/WX    TMP DP  RH WIND       PRES   REMARKS
GUAM AIRPORT   CLEAR     79  77  94 SE5       29.81R
ANDERSEN AFB   PTCLDY    77  75  94 S8        29.81
ROTA AIRPORT   NOT AVBL
TINIAN AP      NOT AVBL
SAIPAN AP      PTCLDY    81  75  83 SE5       29.81F

$$

PMZ161-311900-
REPUBLIC OF PALAU-

CITY           SKY/WX    TMP DP  RH WIND       PRES   REMARKS
KOROR AP       MOCLDY    84  82  94 S6        29.84R HX 101
KOROR WSO      CLOUDY    82  77  83 S6        29.83R HX  91

$$

PMZ171>174-311900-
FEDERATED STATES OF MICRONESIA-

CITY           SKY/WX    TMP DP  RH WIND       PRES   REMARKS
YAP AIRPORT    NOT AVBL
CHUUK AP       CLOUDY    79  77  94 SW9       29.80R
POHNPEI AP     NOT AVBL
POHNPEI WSO    PTCLDY    75  75 100 SE3       29.80F
KOSRAE AP      NOT AVBL

$$

PMZ181-311900-
REPUBLIC OF THE MARSHALL ISLANDS-

CITY           SKY/WX    TMP DP  RH WIND       PRES   REMARKS
KWAJALEIN AP   PTCLDY    82  73  74 S5        29.84S
MAJURO AP      NOT AVBL
MAJURO WSO     MOCLDY    81  75  83 CALM      29.83S

$$




USA.gov is the U.S. government's official web portal to all federal, state and local government web resources and services.